| time (UTC) | temp F | wind direction | speed knots | gust knots | rain 1hr in | rain 24hr in | rain mn in | humidity % | barometer mb |
| 20260504060126 | 98 | 314 | 0.9 | 0.0 | 0.00 | 0.00 | 0.00 | 99 | |
| 20260504050126 | 93 | 235 | 0.9 | 0.0 | 0.00 | 0.00 | 0.00 | 26 | |
| 20260504044626 | 93 | 226 | 1.7 | 0.0 | 0.00 | 0.00 | 0.00 | 26 | |
| 20260504043125 | 90 | 261 | 0.9 | 0.0 | 0.00 | 0.00 | 0.00 | 29 | |
| 20260504041625 | 89 | 94 | 0.9 | 0.0 | 0.00 | 0.00 | 0.00 | 33 | |
| 20260504040125 | 88 | 213 | 0.9 | 0.0 | 0.00 | 0.00 | 0.00 | 36 | |
| 20260504034626 | 89 | 213 | 0.9 | 0.0 | 0.00 | 0.00 | 0.00 | 36 | |
| 20260504033125 | 86 | 257 | 0.9 | 0.0 | 0.00 | 0.00 | 0.00 | 39 | |
| 20260504031625 | 86 | 257 | 0.9 | 0.0 | 0.00 | 0.00 | 0.00 | 40 | |
| 20260504030125 | 82 | 244 | 0.0 | 0.0 | 0.00 | 0.00 | 0.00 | 43 | |
| 20260504024625 | 83 | 244 | 0.0 | 0.0 | 0.00 | 0.00 | 0.00 | 44 | |
| 20260504023126 | 81 | 244 | 0.0 | 0.0 | 0.00 | 0.00 | 0.00 | 46 | |
| 20260504021626 | 80 | 225 | 0.0 | 0.0 | 0.00 | 0.00 | 0.00 | 49 | |
| 20260504020126 | 78 | 225 | 0.0 | 0.0 | 0.00 | 0.00 | 0.00 | 52 | |
| 20260504014626 | 77 | 279 | 0.9 | 0.0 | 0.00 | 0.00 | 0.00 | 55 | |
| 20260504013126 | 77 | 279 | 0.9 | 0.0 | 0.00 | 0.00 | 0.00 | 55 | |
| 20260504011625 | 76 | 216 | 0.0 | 0.0 | 0.00 | 0.00 | 0.00 | 55 | |
| 20260504010126 | 76 | 216 | 0.0 | 0.0 | 0.00 | 0.00 | 0.00 | 55 | |
| 20260504004626 | 75 | 216 | 0.0 | 0.0 | 0.00 | 0.00 | 0.00 | 55 | |
| 20260504003126 | 75 | 263 | 0.0 | 0.0 | 0.00 | 0.00 | 0.00 | 55 | |
| 20260504001626 | 76 | 263 | 0.0 | 0.0 | 0.00 | 0.00 | 0.00 | 54 | |
| 20260504000126 | 76 | 253 | 1.7 | 0.0 | 0.00 | 0.00 | 0.00 | 54 | |
| 20260503234626 | 76 | 253 | 1.7 | 0.0 | 0.00 | 0.00 | 0.00 | 53 | |
| 20260503231625 | 76 | 218 | 0.9 | 0.0 | 0.00 | 0.00 | 0.00 | 51 | |
| 20260503230126 | 76 | 218 | 0.9 | 0.0 | 0.00 | 0.00 | 0.00 | 50 | |
| 20260503224625 | 76 | 242 | 0.0 | 0.0 | 0.00 | 0.00 | 0.00 | 48 | |
| 20260503223125 | 76 | 242 | 0.0 | 0.0 | 0.00 | 0.00 | 0.00 | 48 | |
| 20260503221625 | 76 | 244 | 0.0 | 0.0 | 0.00 | 0.00 | 0.00 | 46 | |
| 20260503220125 | 76 | 244 | 0.0 | 0.0 | 0.00 | 0.00 | 0.00 | 45 | |
| 20260503214626 | 77 | 261 | 0.9 | 0.0 | 0.00 | 0.00 | 0.00 | 45 | |
| 20260503213126 | 77 | 261 | 0.9 | 0.0 | 0.00 | 0.00 | 0.00 | 45 | |
| 20260503211626 | 77 | 261 | 0.9 | 0.0 | 0.00 | 0.00 | 0.00 | 44 | |
| 20260503210125 | 77 | 235 | 0.9 | 0.0 | 0.00 | 0.00 | 0.00 | 43 | |
| 20260503204626 | 78 | 235 | 0.9 | 0.0 | 0.00 | 0.00 | 0.00 | 40 | |
| 20260503203126 | 78 | 277 | 0.9 | 0.0 | 0.00 | 0.00 | 0.00 | 39 | |
| 20260503201626 | 78 | 277 | 0.9 | 0.0 | 0.00 | 0.00 | 0.00 | 38 | |
| 20260503200126 | 79 | 272 | 0.9 | 0.0 | 0.00 | 0.00 | 0.00 | 37 | |
| 20260503194625 | 79 | 258 | 0.0 | 0.0 | 0.00 | 0.00 | 0.00 | 37 | |
| 20260503193126 | 79 | 258 | 0.0 | 0.0 | 0.00 | 0.00 | 0.00 | 38 | |
| 20260503191626 | 80 | 229 | 0.9 | 0.0 | 0.00 | 0.00 | 0.00 | 37 | |
| 20260503190126 | 80 | 229 | 0.9 | 0.0 | 0.00 | 0.00 | 0.00 | 36 | |
| 20260503184625 | 80 | 222 | 0.0 | 0.0 | 0.00 | 0.00 | 0.00 | 35 | |
| 20260503183126 | 81 | 222 | 0.0 | 0.0 | 0.00 | 0.00 | 0.00 | 34 | |
| 20260503181626 | 81 | 222 | 0.0 | 0.0 | 0.00 | 0.00 | 0.00 | 34 | |
| 20260503180126 | 81 | 243 | 0.9 | 0.0 | 0.00 | 0.00 | 0.00 | 33 | |
| 20260503174626 | 82 | 243 | 0.9 | 0.0 | 0.00 | 0.00 | 0.00 | 33 | |
| 20260503173600 | 82 | 239 | 0.9 | 0.0 | 0.00 | 0.00 | 0.00 | 32 | |
| 20260503172002 | 82 | 239 | 0.9 | 0.0 | 0.00 | 0.00 | 0.00 | 32 | |
| 20260503170502 | 82 | 228 | 0.0 | 0.0 | 0.00 | 0.00 | 0.00 | 31 | |
| 20260503150502 | 86 | 193 | 0.0 | 0.0 | 0.00 | 0.00 | 0.00 | 25 | |
| 20260503131300 | 91 | 306 | 0.9 | 0.0 | 0.00 | 0.00 | 0.00 | 99 | |
| 20260503081301 | 103 | 29 | 0.0 | 0.0 | 0.00 | 0.00 | 0.00 | 25 | |
| 20260503072800 | 101 | 237 | 0.9 | 0.0 | 0.00 | 0.00 | 0.00 | 10 | |
| 20260503071300 | 101 | 237 | 0.9 | 0.0 | 0.00 | 0.00 | 0.00 | 10 |